Year,Month,Day,Hour,Minute,Value (Times are PST for temperature in C)
2008,10,09,00,00,5.70
2008,10,09,00,01,5.70
2008,10,09,00,02,5.70
2008,10,09,00,03,5.70
2008,10,09,00,04,5.60
2008,10,09,00,05,5.60
2008,10,09,00,06,5.60
2008,10,09,00,07,5.50
2008,10,09,00,08,5.60
2008,10,09,00,09,5.60
2008,10,09,00,10,5.60
2008,10,09,00,11,5.60
2008,10,09,00,12,5.60
2008,10,09,00,13,5.70
2008,10,09,00,14,5.60
2008,10,09,00,15,5.60
2008,10,09,00,16,5.60
2008,10,09,00,17,5.50
2008,10,09,00,18,5.50
2008,10,09,00,19,5.50
2008,10,09,00,20,5.50
2008,10,09,00,21,5.50
2008,10,09,00,22,5.50
2008,10,09,00,23,5.50
2008,10,09,00,24,5.50
2008,10,09,00,25,5.40
2008,10,09,00,26,5.40
2008,10,09,00,27,5.50
2008,10,09,00,28,5.50
2008,10,09,00,29,5.50
2008,10,09,00,30,5.50
2008,10,09,00,31,5.50
2008,10,09,00,32,5.50
2008,10,09,00,33,5.50
2008,10,09,00,34,5.50
2008,10,09,00,35,5.50
2008,10,09,00,36,5.50
2008,10,09,00,37,5.50
2008,10,09,00,38,5.40
2008,10,09,00,39,5.40
2008,10,09,00,40,5.50
2008,10,09,00,41,5.50
2008,10,09,00,42,5.50
2008,10,09,00,43,5.50
2008,10,09,00,44,5.40
2008,10,09,00,45,5.40
2008,10,09,00,46,5.30
2008,10,09,00,47,5.30
2008,10,09,00,48,5.30
2008,10,09,00,49,5.30
2008,10,09,00,50,5.40
2008,10,09,00,51,5.40
2008,10,09,00,52,5.40
2008,10,09,00,53,5.40
2008,10,09,00,54,5.40
2008,10,09,00,55,5.40
2008,10,09,00,56,5.40
2008,10,09,00,57,5.30
2008,10,09,00,58,5.30
2008,10,09,00,59,5.30
2008,10,09,01,00,5.30
2008,10,09,01,01,5.30
2008,10,09,01,02,5.30
2008,10,09,01,03,5.30
2008,10,09,01,04,5.30
2008,10,09,01,05,5.30
2008,10,09,01,06,5.40
2008,10,09,01,07,5.40
2008,10,09,01,08,5.50
2008,10,09,01,09,5.60
2008,10,09,01,10,5.70
2008,10,09,01,11,5.70
2008,10,09,01,12,5.80
2008,10,09,01,13,5.90
2008,10,09,01,14,5.90
2008,10,09,01,15,6.00
2008,10,09,01,16,6.00
2008,10,09,01,17,6.10
2008,10,09,01,18,6.10
2008,10,09,01,19,6.20
2008,10,09,01,20,6.20
2008,10,09,01,21,6.20
2008,10,09,01,22,6.20
2008,10,09,01,23,6.20
2008,10,09,01,24,6.20
2008,10,09,01,25,6.20
2008,10,09,01,26,6.20
2008,10,09,01,27,6.20
2008,10,09,01,28,6.20
2008,10,09,01,29,6.20
2008,10,09,01,30,6.20
2008,10,09,01,31,6.10
2008,10,09,01,32,6.10
2008,10,09,01,33,6.10
2008,10,09,01,34,6.10
2008,10,09,01,35,6.10
2008,10,09,01,36,6.00
2008,10,09,01,37,6.00
2008,10,09,01,38,6.00
2008,10,09,01,39,6.00
2008,10,09,01,40,5.90
2008,10,09,01,41,5.90
2008,10,09,01,42,5.90
2008,10,09,01,43,5.80
2008,10,09,01,44,5.80
2008,10,09,01,45,5.80
2008,10,09,01,46,5.80
2008,10,09,01,47,5.80
2008,10,09,01,48,5.70
2008,10,09,01,49,5.70
2008,10,09,01,50,5.70
2008,10,09,01,51,5.70
2008,10,09,01,52,5.70
2008,10,09,01,53,5.70
2008,10,09,01,54,5.70
2008,10,09,01,55,5.70
2008,10,09,01,56,5.70
2008,10,09,01,57,5.70
2008,10,09,01,58,5.70
2008,10,09,01,59,5.70
2008,10,09,02,00,5.70
2008,10,09,02,01,5.70
2008,10,09,02,02,5.60
2008,10,09,02,03,5.60
2008,10,09,02,04,5.60
2008,10,09,02,05,5.50
2008,10,09,02,06,5.50
2008,10,09,02,07,5.40
2008,10,09,02,08,5.40
2008,10,09,02,09,5.40
2008,10,09,02,10,5.30
2008,10,09,02,11,5.30
2008,10,09,02,12,5.30
2008,10,09,02,13,5.30
2008,10,09,02,14,5.30
2008,10,09,02,15,5.30
2008,10,09,02,16,5.30
2008,10,09,02,17,5.30
2008,10,09,02,18,5.30
2008,10,09,02,19,5.30
2008,10,09,02,20,5.30
2008,10,09,02,21,5.30
2008,10,09,02,22,5.30
2008,10,09,02,23,5.30
2008,10,09,02,24,5.30
2008,10,09,02,25,5.30
2008,10,09,02,26,5.30
2008,10,09,02,27,5.30
2008,10,09,02,28,5.30
2008,10,09,02,29,5.40
2008,10,09,02,30,5.40
2008,10,09,02,31,5.40
2008,10,09,02,32,5.40
2008,10,09,02,33,5.40
2008,10,09,02,34,5.40
2008,10,09,02,35,5.40
2008,10,09,02,36,5.40
2008,10,09,02,37,5.50
2008,10,09,02,38,5.50
2008,10,09,02,39,5.50
2008,10,09,02,40,5.50
2008,10,09,02,41,5.40
2008,10,09,02,42,5.40
2008,10,09,02,43,5.40
2008,10,09,02,44,5.40
2008,10,09,02,45,5.40
2008,10,09,02,46,5.40
2008,10,09,02,47,5.30
2008,10,09,02,48,5.30
2008,10,09,02,49,5.30
2008,10,09,02,50,5.30
2008,10,09,02,51,5.30
2008,10,09,02,52,5.30
2008,10,09,02,53,5.30
2008,10,09,02,54,5.30
2008,10,09,02,55,5.30
2008,10,09,02,56,5.30
2008,10,09,02,57,5.40
2008,10,09,02,58,5.40
2008,10,09,02,59,5.40
2008,10,09,03,00,5.40
2008,10,09,03,01,5.40
2008,10,09,03,02,5.30
2008,10,09,03,03,5.30
2008,10,09,03,04,5.30
2008,10,09,03,05,5.20
2008,10,09,03,06,5.10
2008,10,09,03,07,5.10
2008,10,09,03,08,5.10
2008,10,09,03,09,5.10
2008,10,09,03,10,5.00
2008,10,09,03,11,4.90
2008,10,09,03,12,4.90
2008,10,09,03,13,4.90
2008,10,09,03,14,4.90
2008,10,09,03,15,4.90
2008,10,09,03,16,4.90
2008,10,09,03,17,4.90
2008,10,09,03,18,4.90
2008,10,09,03,19,4.80
2008,10,09,03,20,4.80
2008,10,09,03,21,4.90
2008,10,09,03,22,4.90
2008,10,09,03,23,4.90
2008,10,09,03,24,4.90
2008,10,09,03,25,4.90
2008,10,09,03,26,4.90
2008,10,09,03,27,4.90
2008,10,09,03,28,5.00
2008,10,09,03,29,5.10
2008,10,09,03,30,5.30
2008,10,09,03,31,5.40
2008,10,09,03,32,5.50
2008,10,09,03,33,5.50
2008,10,09,03,34,5.60
2008,10,09,03,35,5.70
2008,10,09,03,36,5.70
2008,10,09,03,37,5.70
2008,10,09,03,38,5.80
2008,10,09,03,39,5.80
2008,10,09,03,40,5.90
2008,10,09,03,41,5.90
2008,10,09,03,42,5.90
2008,10,09,03,43,5.90
2008,10,09,03,44,5.90
2008,10,09,03,45,5.90
2008,10,09,03,46,5.90
2008,10,09,03,47,5.80
2008,10,09,03,48,5.80
2008,10,09,03,49,5.80
2008,10,09,03,50,5.70
2008,10,09,03,51,5.70
2008,10,09,03,52,5.70
2008,10,09,03,53,5.70
2008,10,09,03,54,5.70
2008,10,09,03,55,5.60
2008,10,09,03,56,5.60
2008,10,09,03,57,5.60
2008,10,09,03,58,5.50
2008,10,09,03,59,5.50
2008,10,09,04,00,5.50
2008,10,09,04,01,5.40
2008,10,09,04,02,5.40
2008,10,09,04,03,5.40
2008,10,09,04,05,5.30
2008,10,09,04,06,5.30
2008,10,09,04,10,5.30
2008,10,09,04,11,5.30
2008,10,09,04,13,5.40
2008,10,09,04,16,5.40
2008,10,09,04,19,5.40
2008,10,09,04,22,5.50
2008,10,09,04,23,5.50
2008,10,09,04,24,5.60
2008,10,09,04,25,5.60
2008,10,09,04,26,5.70
2008,10,09,04,27,5.70
2008,10,09,04,28,5.70
2008,10,09,04,29,5.80
2008,10,09,04,30,5.80
2008,10,09,04,31,5.80
2008,10,09,04,32,5.90
2008,10,09,04,33,5.90
2008,10,09,04,34,5.90
2008,10,09,04,35,5.90
2008,10,09,04,36,5.90
2008,10,09,04,37,5.90
2008,10,09,04,38,5.80
2008,10,09,04,39,5.80
2008,10,09,04,40,5.70
2008,10,09,04,41,5.70
2008,10,09,04,42,5.70
2008,10,09,04,43,5.70
2008,10,09,04,44,5.70
2008,10,09,04,45,5.60
2008,10,09,04,46,5.60
2008,10,09,04,47,5.50
2008,10,09,04,48,5.50
2008,10,09,04,49,5.40
2008,10,09,04,50,5.40
2008,10,09,04,51,5.40
2008,10,09,04,52,5.40
2008,10,09,04,53,5.50
2008,10,09,04,54,5.50
2008,10,09,04,55,5.50
2008,10,09,04,56,5.60
2008,10,09,04,57,5.70
2008,10,09,04,58,5.70
2008,10,09,04,59,5.70
2008,10,09,05,00,5.70
2008,10,09,05,01,5.60
2008,10,09,05,02,5.60
2008,10,09,05,03,5.60
2008,10,09,05,04,5.50
2008,10,09,05,05,5.50
2008,10,09,05,06,5.50
2008,10,09,05,07,5.40
2008,10,09,05,08,5.30
2008,10,09,05,09,5.30
2008,10,09,05,10,5.30
2008,10,09,05,11,5.30
2008,10,09,05,12,5.30
2008,10,09,05,13,5.30
2008,10,09,05,14,5.30
2008,10,09,05,15,5.30
2008,10,09,05,16,5.30
2008,10,09,05,17,5.30
2008,10,09,05,18,5.30
2008,10,09,05,19,5.30
2008,10,09,05,20,5.30
2008,10,09,05,21,5.40
2008,10,09,05,22,5.30
2008,10,09,05,23,5.30
2008,10,09,05,24,5.30
2008,10,09,05,25,5.30
2008,10,09,05,26,5.30
2008,10,09,05,27,5.30
2008,10,09,05,28,5.30
2008,10,09,05,29,5.20
2008,10,09,05,30,5.10
2008,10,09,05,31,5.10
2008,10,09,05,32,5.00
2008,10,09,05,33,4.90
2008,10,09,05,34,4.90
2008,10,09,05,35,4.80
2008,10,09,05,36,4.70
2008,10,09,05,37,4.70
2008,10,09,05,38,4.60
2008,10,09,05,39,4.60
2008,10,09,05,40,4.60
2008,10,09,05,41,4.50
2008,10,09,05,42,4.50
2008,10,09,05,43,4.50
2008,10,09,05,44,4.40
2008,10,09,05,45,4.40
2008,10,09,05,46,4.40
2008,10,09,05,47,4.30
2008,10,09,05,48,4.30
2008,10,09,05,49,4.30
2008,10,09,05,50,4.20
2008,10,09,05,51,4.20
2008,10,09,05,52,4.20
2008,10,09,05,53,4.20
2008,10,09,05,54,4.20
2008,10,09,05,55,4.20
2008,10,09,05,56,4.20
2008,10,09,05,57,4.20
2008,10,09,05,58,4.20
2008,10,09,05,59,4.20
2008,10,09,06,00,4.30
2008,10,09,06,01,4.30
2008,10,09,06,02,4.40
2008,10,09,06,03,4.40
2008,10,09,06,04,4.40
2008,10,09,06,05,4.50
2008,10,09,06,06,4.40
2008,10,09,06,07,4.40
2008,10,09,06,08,4.30
2008,10,09,06,09,4.30
2008,10,09,06,10,4.20
2008,10,09,06,11,4.20
2008,10,09,06,12,4.20
2008,10,09,06,13,4.20
2008,10,09,06,14,4.20
2008,10,09,06,15,4.20
2008,10,09,06,16,4.20
2008,10,09,06,17,4.20
2008,10,09,06,18,4.20
2008,10,09,06,19,4.20
2008,10,09,06,20,4.20
2008,10,09,06,21,4.20
2008,10,09,06,22,4.20
2008,10,09,06,23,4.20
2008,10,09,06,24,4.20
2008,10,09,06,25,4.20
2008,10,09,06,26,4.10
2008,10,09,06,27,4.10
2008,10,09,06,28,4.10
2008,10,09,06,29,4.10
2008,10,09,06,30,4.10
2008,10,09,06,31,4.10
2008,10,09,06,32,4.10
2008,10,09,06,33,4.10
2008,10,09,06,34,4.10
2008,10,09,06,35,4.10
2008,10,09,06,36,4.10
2008,10,09,06,37,4.10
2008,10,09,06,38,4.10
2008,10,09,06,39,4.10
2008,10,09,06,40,4.10
2008,10,09,06,41,4.10
2008,10,09,06,42,4.10
2008,10,09,06,43,4.10
2008,10,09,06,44,4.10
2008,10,09,06,45,4.10
2008,10,09,06,46,4.10
2008,10,09,06,47,4.20
2008,10,09,06,48,4.20
2008,10,09,06,49,4.20
2008,10,09,06,50,4.20
2008,10,09,06,51,4.20
2008,10,09,06,52,4.20
2008,10,09,06,53,4.20
2008,10,09,06,54,4.20
2008,10,09,06,55,4.20
2008,10,09,06,56,4.20
2008,10,09,06,57,4.20
2008,10,09,06,58,4.20
2008,10,09,06,59,4.20
2008,10,09,07,00,4.20
2008,10,09,07,01,4.20
2008,10,09,07,02,4.20
2008,10,09,07,03,4.20
2008,10,09,07,04,4.20
2008,10,09,07,05,4.30
2008,10,09,07,06,4.30
2008,10,09,07,07,4.30
2008,10,09,07,08,4.30
2008,10,09,07,09,4.30
2008,10,09,07,10,4.30
2008,10,09,07,11,4.30
2008,10,09,07,12,4.30
2008,10,09,07,13,4.30
2008,10,09,07,14,4.30
2008,10,09,07,15,4.30
2008,10,09,07,16,4.30
2008,10,09,07,17,4.40
2008,10,09,07,18,4.40
2008,10,09,07,19,4.50
2008,10,09,07,20,4.50
2008,10,09,07,21,4.60
2008,10,09,07,22,4.70
2008,10,09,07,23,4.70
2008,10,09,07,24,4.80
2008,10,09,07,25,4.80
2008,10,09,07,26,4.90
2008,10,09,07,27,4.90
2008,10,09,07,28,4.90
2008,10,09,07,29,4.90
2008,10,09,07,30,4.90
2008,10,09,07,31,5.00
2008,10,09,07,32,5.10
2008,10,09,07,33,5.10
2008,10,09,07,34,5.10
2008,10,09,07,35,5.20
2008,10,09,07,36,5.30
2008,10,09,07,37,5.30
2008,10,09,07,38,5.30
2008,10,09,07,39,5.30
2008,10,09,07,40,5.30
2008,10,09,07,41,5.30
2008,10,09,07,42,5.30
2008,10,09,07,43,5.30
2008,10,09,07,44,5.30
2008,10,09,07,45,5.40
2008,10,09,07,46,5.40
2008,10,09,07,47,5.40
2008,10,09,07,48,5.50
2008,10,09,07,49,5.50
2008,10,09,07,50,5.50
2008,10,09,07,51,5.50
2008,10,09,07,52,5.50
2008,10,09,07,53,5.50
2008,10,09,07,54,5.50
2008,10,09,07,55,5.50
2008,10,09,07,56,5.50
2008,10,09,07,57,5.50
2008,10,09,07,58,5.50
2008,10,09,07,59,5.50
2008,10,09,08,00,5.50
2008,10,09,08,01,5.50
2008,10,09,08,02,5.50
2008,10,09,08,03,5.50
2008,10,09,08,04,5.50
2008,10,09,08,05,5.50
2008,10,09,08,06,5.60
2008,10,09,08,07,5.70
2008,10,09,08,08,5.80
2008,10,09,08,09,5.90
2008,10,09,08,10,6.00
2008,10,09,08,11,6.00
2008,10,09,08,12,6.10
2008,10,09,08,13,6.20
2008,10,09,08,14,6.20
2008,10,09,08,15,6.20
2008,10,09,08,16,6.20
2008,10,09,08,17,6.20
2008,10,09,08,18,6.20
2008,10,09,08,19,6.30
2008,10,09,08,20,6.30
2008,10,09,08,21,6.40
2008,10,09,08,22,6.40
2008,10,09,08,23,6.40
2008,10,09,08,24,6.40
2008,10,09,08,25,6.40
2008,10,09,08,26,6.40
2008,10,09,08,27,6.40
2008,10,09,08,28,6.40
2008,10,09,08,29,6.40
2008,10,09,08,30,6.40
2008,10,09,08,31,6.40
2008,10,09,08,32,6.40
2008,10,09,08,33,6.40
2008,10,09,08,34,6.40
2008,10,09,08,35,6.40
2008,10,09,08,36,6.40
2008,10,09,08,37,6.40
2008,10,09,08,38,6.40
2008,10,09,08,39,6.40
2008,10,09,08,40,6.40
2008,10,09,08,41,6.40
2008,10,09,08,42,6.40
2008,10,09,08,43,6.40
2008,10,09,08,44,6.40
2008,10,09,08,45,6.40
2008,10,09,08,46,6.40
2008,10,09,08,47,6.40
2008,10,09,08,48,6.40
2008,10,09,08,49,6.40
2008,10,09,08,50,6.40
2008,10,09,08,51,6.40
2008,10,09,08,52,6.40
2008,10,09,08,53,6.40
2008,10,09,08,54,6.40
2008,10,09,08,55,6.60
2008,10,09,08,56,6.60
2008,10,09,08,57,6.60
2008,10,09,08,58,6.60
2008,10,09,08,59,6.60
2008,10,09,09,00,6.60
2008,10,09,09,01,6.60
2008,10,09,09,02,6.60
2008,10,09,09,03,6.60
2008,10,09,09,04,6.60
2008,10,09,09,05,6.70
2008,10,09,09,06,6.70
2008,10,09,09,07,6.70
2008,10,09,09,08,6.80
2008,10,09,09,09,6.80
2008,10,09,09,10,6.80
2008,10,09,09,11,6.80
2008,10,09,09,12,6.90
2008,10,09,09,13,6.90
2008,10,09,09,14,7.00
2008,10,09,09,15,7.00
2008,10,09,09,16,7.10
2008,10,09,09,17,7.20
2008,10,09,09,18,7.20
2008,10,09,09,19,7.30
2008,10,09,09,20,7.30
2008,10,09,09,21,7.30
2008,10,09,09,22,7.30
2008,10,09,09,23,7.30
2008,10,09,09,24,7.40
2008,10,09,09,25,7.40
2008,10,09,09,26,7.40
2008,10,09,09,27,7.50
2008,10,09,09,28,7.50
2008,10,09,09,29,7.50
2008,10,09,09,30,7.50
2008,10,09,09,31,7.50
2008,10,09,09,32,7.50
2008,10,09,09,33,7.60
2008,10,09,09,34,7.60
2008,10,09,09,35,7.60
2008,10,09,09,36,7.70
2008,10,09,09,37,7.70
2008,10,09,09,38,7.60
2008,10,09,09,39,7.60
2008,10,09,09,40,7.60
2008,10,09,09,41,7.60
2008,10,09,09,42,7.60
2008,10,09,09,43,7.60
2008,10,09,09,44,7.60
2008,10,09,09,45,7.50
2008,10,09,09,46,7.50
2008,10,09,09,47,7.50
2008,10,09,09,48,7.50
2008,10,09,09,49,7.50
2008,10,09,09,50,7.40
2008,10,09,09,51,7.40
2008,10,09,09,52,7.40
2008,10,09,09,53,7.40
2008,10,09,09,54,7.40
2008,10,09,09,55,7.30
2008,10,09,09,56,7.40
2008,10,09,09,57,7.40
2008,10,09,09,58,7.40
2008,10,09,09,59,7.40
2008,10,09,10,00,7.40
2008,10,09,10,01,7.40
2008,10,09,10,02,7.40
2008,10,09,10,03,7.40
2008,10,09,10,04,7.40
2008,10,09,10,05,7.50
2008,10,09,10,06,7.50
2008,10,09,10,07,7.60
2008,10,09,10,08,7.70
2008,10,09,10,09,7.70
2008,10,09,10,10,7.60
2008,10,09,10,11,7.60
2008,10,09,10,12,7.60
2008,10,09,10,13,7.70
2008,10,09,10,14,7.70
2008,10,09,10,15,7.70
2008,10,09,10,16,7.70
2008,10,09,10,17,7.80
2008,10,09,10,18,7.80
2008,10,09,10,19,7.80
2008,10,09,10,20,7.80
2008,10,09,10,21,7.80
2008,10,09,10,22,7.80
2008,10,09,10,23,7.80
2008,10,09,10,24,7.80
2008,10,09,10,25,7.80
2008,10,09,10,26,7.80
2008,10,09,10,27,7.80
2008,10,09,10,28,7.80
2008,10,09,10,29,7.90
2008,10,09,10,30,7.90
2008,10,09,10,31,7.90
2008,10,09,10,32,7.90
2008,10,09,10,33,7.90
2008,10,09,10,34,8.00
2008,10,09,10,35,8.00
2008,10,09,10,36,8.00
2008,10,09,10,37,8.10
2008,10,09,10,38,8.10
2008,10,09,10,39,8.10
2008,10,09,10,40,8.10
2008,10,09,10,41,8.10
2008,10,09,10,42,8.10
2008,10,09,10,43,8.20
2008,10,09,10,44,8.30
2008,10,09,10,45,8.30
2008,10,09,10,46,8.40
2008,10,09,10,47,8.40
2008,10,09,10,48,8.30
2008,10,09,10,49,8.30
2008,10,09,10,50,8.30
2008,10,09,10,51,8.30
2008,10,09,10,52,8.30
2008,10,09,10,53,8.30
2008,10,09,10,54,8.30
2008,10,09,10,55,8.40
2008,10,09,10,56,8.50
2008,10,09,10,57,8.50
2008,10,09,10,58,8.50
2008,10,09,10,59,8.50
2008,10,09,11,00,8.50
2008,10,09,11,01,8.50
2008,10,09,11,02,8.70
2008,10,09,11,03,8.60
2008,10,09,11,04,8.60
2008,10,09,11,05,8.70
2008,10,09,11,06,8.70
2008,10,09,11,07,8.70
2008,10,09,11,08,8.70
2008,10,09,11,09,8.80
2008,10,09,11,10,8.80
2008,10,09,11,11,8.80
2008,10,09,11,12,8.80
2008,10,09,11,13,8.90
2008,10,09,11,14,8.80
2008,10,09,11,15,8.80
2008,10,09,11,16,8.80
2008,10,09,11,17,8.80
2008,10,09,11,18,8.80
2008,10,09,11,19,8.90
2008,10,09,11,20,8.90
2008,10,09,11,21,8.80
2008,10,09,11,22,8.80
2008,10,09,11,23,8.80
2008,10,09,11,24,8.80
2008,10,09,11,25,8.70
2008,10,09,11,26,8.70
2008,10,09,11,27,8.70
2008,10,09,11,28,8.70
2008,10,09,11,29,8.70
2008,10,09,11,30,8.70
2008,10,09,11,31,8.70
2008,10,09,11,32,8.60
2008,10,09,11,33,8.60
2008,10,09,11,34,8.60
2008,10,09,11,35,8.60
2008,10,09,11,36,8.60
2008,10,09,11,37,8.60
2008,10,09,11,38,8.50
2008,10,09,11,39,8.50
2008,10,09,11,40,8.50
2008,10,09,11,41,8.40
2008,10,09,11,42,8.40
2008,10,09,11,43,8.40
2008,10,09,11,44,8.40
2008,10,09,11,45,8.30
2008,10,09,11,46,8.30
2008,10,09,11,47,8.20
2008,10,09,11,48,8.20
2008,10,09,11,49,8.10
2008,10,09,11,50,8.10
2008,10,09,11,51,8.10
2008,10,09,11,52,8.10
2008,10,09,11,53,8.20
2008,10,09,11,54,8.20
2008,10,09,11,55,8.20
2008,10,09,11,56,8.20
2008,10,09,11,57,8.20
2008,10,09,11,58,8.30
2008,10,09,11,59,8.30
2008,10,09,12,00,8.30
2008,10,09,12,01,8.30
2008,10,09,12,02,8.30
2008,10,09,12,03,8.30
2008,10,09,12,04,8.30
2008,10,09,12,05,8.20
2008,10,09,12,06,8.20
2008,10,09,12,07,8.20
2008,10,09,12,08,8.20
2008,10,09,12,09,8.20
2008,10,09,12,10,8.20
2008,10,09,12,11,8.20
2008,10,09,12,12,8.20
2008,10,09,12,13,8.20
2008,10,09,12,14,8.20
2008,10,09,12,15,8.20
2008,10,09,12,16,8.20
2008,10,09,12,17,8.20
2008,10,09,12,18,8.20
2008,10,09,12,19,8.20
2008,10,09,12,20,8.20
2008,10,09,12,21,8.20
2008,10,09,12,22,8.20
2008,10,09,12,23,8.20
2008,10,09,12,24,8.20
2008,10,09,12,25,8.30
2008,10,09,12,26,8.30
2008,10,09,12,27,8.30
2008,10,09,12,28,8.30
2008,10,09,12,29,8.30
2008,10,09,12,30,8.30
2008,10,09,12,31,8.20
2008,10,09,12,32,8.30
2008,10,09,12,33,8.30
2008,10,09,12,34,8.30
2008,10,09,12,35,8.40
2008,10,09,12,36,8.40
2008,10,09,12,37,8.40
2008,10,09,12,38,8.40
2008,10,09,12,39,8.30
2008,10,09,12,40,8.30
2008,10,09,12,41,8.30
2008,10,09,12,42,8.30
2008,10,09,12,43,8.30
2008,10,09,12,44,8.30
2008,10,09,12,45,8.30
2008,10,09,12,46,8.30
2008,10,09,12,47,8.30
2008,10,09,12,48,8.30
2008,10,09,12,49,8.30
2008,10,09,12,50,8.30
2008,10,09,12,51,8.20
2008,10,09,12,52,8.20
2008,10,09,12,53,8.20
2008,10,09,12,54,8.20
2008,10,09,12,55,8.30
2008,10,09,12,56,8.30
2008,10,09,12,57,8.20
2008,10,09,12,58,8.20
2008,10,09,12,59,8.20
2008,10,09,13,00,8.20
2008,10,09,13,01,8.20
2008,10,09,13,02,8.20
2008,10,09,13,03,8.20
2008,10,09,13,04,8.20
2008,10,09,13,05,8.20
2008,10,09,13,06,8.20
2008,10,09,13,07,8.20
2008,10,09,13,08,8.20
2008,10,09,13,09,8.20
2008,10,09,13,10,8.20
2008,10,09,13,11,8.20
2008,10,09,13,12,8.20
2008,10,09,13,13,8.20
2008,10,09,13,14,8.20
2008,10,09,13,15,8.20
2008,10,09,13,16,8.20
2008,10,09,13,17,8.20
2008,10,09,13,18,8.20
2008,10,09,13,19,8.20
2008,10,09,13,20,8.20
2008,10,09,13,21,8.20
2008,10,09,13,22,8.30
2008,10,09,13,23,8.30
2008,10,09,13,24,8.30
2008,10,09,13,25,8.30
2008,10,09,13,26,8.40
2008,10,09,13,27,8.40
2008,10,09,13,28,8.40
2008,10,09,13,29,8.40
2008,10,09,13,30,8.40
2008,10,09,13,31,8.40
2008,10,09,13,32,8.40
2008,10,09,13,33,8.40
2008,10,09,13,34,8.40
2008,10,09,13,35,8.30
2008,10,09,13,36,8.40
2008,10,09,13,37,8.40
2008,10,09,13,38,8.40
2008,10,09,13,39,8.40
2008,10,09,13,40,8.40
2008,10,09,13,41,8.40
2008,10,09,13,42,8.40
2008,10,09,13,43,8.30
2008,10,09,13,44,8.30
2008,10,09,13,45,8.20
2008,10,09,13,46,8.20
2008,10,09,13,47,8.20
2008,10,09,13,48,8.20
2008,10,09,13,49,8.10
2008,10,09,13,50,8.10
2008,10,09,13,51,8.10
2008,10,09,13,52,8.10
2008,10,09,13,53,8.00
2008,10,09,13,54,7.90
2008,10,09,13,55,7.90
2008,10,09,13,56,7.90
2008,10,09,13,57,7.80
2008,10,09,13,58,7.80
2008,10,09,13,59,7.80
2008,10,09,14,00,7.80
2008,10,09,14,01,7.80
2008,10,09,14,02,7.80
2008,10,09,14,03,7.80
2008,10,09,14,04,7.70
2008,10,09,14,05,7.70
2008,10,09,14,06,7.70
2008,10,09,14,07,7.70
2008,10,09,14,08,7.70
2008,10,09,14,09,7.60
2008,10,09,14,10,7.60
2008,10,09,14,11,7.60
2008,10,09,14,12,7.60
2008,10,09,14,13,7.60
2008,10,09,14,14,7.70
2008,10,09,14,15,7.70
2008,10,09,14,16,7.70
2008,10,09,14,17,7.70
2008,10,09,14,18,7.70
2008,10,09,14,19,7.70
2008,10,09,14,20,7.70
2008,10,09,14,21,7.70
2008,10,09,14,22,7.80
2008,10,09,14,23,7.80
2008,10,09,14,24,7.80
2008,10,09,14,25,7.80
2008,10,09,14,26,7.80
2008,10,09,14,27,7.80
2008,10,09,14,28,7.80
2008,10,09,14,29,7.80
2008,10,09,14,30,7.90
2008,10,09,14,31,7.90
2008,10,09,14,32,7.90
2008,10,09,14,33,7.90
2008,10,09,14,34,7.90
2008,10,09,14,35,7.90
2008,10,09,14,36,7.90
2008,10,09,14,37,7.90
2008,10,09,14,38,8.00
2008,10,09,14,39,8.00
2008,10,09,14,40,8.00
2008,10,09,14,41,8.00
2008,10,09,14,42,8.10
2008,10,09,14,43,8.10
2008,10,09,14,44,8.10
2008,10,09,14,45,8.10
2008,10,09,14,46,8.10
2008,10,09,14,47,8.10
2008,10,09,14,48,8.10
2008,10,09,14,49,8.10
2008,10,09,14,50,8.10
2008,10,09,14,51,8.20
2008,10,09,14,52,8.20
2008,10,09,14,53,8.20
2008,10,09,14,54,8.20
2008,10,09,14,55,8.20
2008,10,09,14,56,8.20
2008,10,09,14,57,8.20
2008,10,09,14,58,8.20
2008,10,09,14,59,8.10
2008,10,09,15,00,8.10
2008,10,09,15,01,8.10
2008,10,09,15,02,8.10
2008,10,09,15,03,8.10
2008,10,09,15,04,8.00
2008,10,09,15,05,8.00
2008,10,09,15,06,8.00
2008,10,09,15,07,8.00
2008,10,09,15,08,8.00
2008,10,09,15,09,8.00
2008,10,09,15,10,8.00
2008,10,09,15,11,8.00
2008,10,09,15,12,8.00
2008,10,09,15,13,8.00
2008,10,09,15,14,8.00
2008,10,09,15,15,8.00
2008,10,09,15,16,8.00
2008,10,09,15,17,8.00
2008,10,09,15,18,8.00
2008,10,09,15,19,8.00
2008,10,09,15,20,8.10
2008,10,09,15,21,8.10
2008,10,09,15,22,8.10
2008,10,09,15,23,8.10
2008,10,09,15,24,8.00
2008,10,09,15,25,8.00
2008,10,09,15,26,7.90
2008,10,09,15,27,7.90
2008,10,09,15,28,7.90
2008,10,09,15,29,7.90
2008,10,09,15,30,7.90
2008,10,09,15,31,7.90
2008,10,09,15,32,7.90
2008,10,09,15,33,7.90
2008,10,09,15,34,7.90
2008,10,09,15,35,7.90
2008,10,09,15,36,7.90
2008,10,09,15,37,7.90
2008,10,09,15,38,7.80
2008,10,09,15,39,7.80
2008,10,09,15,40,7.80
2008,10,09,15,41,7.80
2008,10,09,15,42,7.80
2008,10,09,15,43,7.80
2008,10,09,15,44,7.80
2008,10,09,15,45,7.80
2008,10,09,15,46,7.80
2008,10,09,15,47,7.80
2008,10,09,15,48,7.80
2008,10,09,15,49,7.80
2008,10,09,15,50,7.80
2008,10,09,15,51,7.80
2008,10,09,15,52,7.80
2008,10,09,15,53,7.70
2008,10,09,15,54,7.70
2008,10,09,15,55,7.70
2008,10,09,15,56,7.70
2008,10,09,15,57,7.80
2008,10,09,15,58,7.80
2008,10,09,15,59,7.80
2008,10,09,16,00,7.80
2008,10,09,16,01,7.80
2008,10,09,16,02,7.80
2008,10,09,16,03,7.80
2008,10,09,16,04,7.80
2008,10,09,16,05,7.80
2008,10,09,16,06,7.80
2008,10,09,16,07,7.80
2008,10,09,16,08,7.90
2008,10,09,16,09,7.90
2008,10,09,16,10,8.00
2008,10,09,16,11,8.00
2008,10,09,16,12,8.10
2008,10,09,16,13,8.10
2008,10,09,16,14,8.10
2008,10,09,16,15,8.10
2008,10,09,16,16,8.10
2008,10,09,16,17,8.10
2008,10,09,16,18,8.00
2008,10,09,16,19,8.00
2008,10,09,16,20,8.00
2008,10,09,16,21,7.90
2008,10,09,16,22,7.80
2008,10,09,16,23,7.80
2008,10,09,16,24,7.70
2008,10,09,16,25,7.60
2008,10,09,16,26,7.60
2008,10,09,16,27,7.60
2008,10,09,16,28,7.50
2008,10,09,16,29,7.50
2008,10,09,16,30,7.40
2008,10,09,16,31,7.30
2008,10,09,16,32,7.30
2008,10,09,16,33,7.30
2008,10,09,16,34,7.30
2008,10,09,16,35,7.30
2008,10,09,16,36,7.30
2008,10,09,16,37,7.30
2008,10,09,16,38,7.30
2008,10,09,16,39,7.30
2008,10,09,16,40,7.30
2008,10,09,16,41,7.30
2008,10,09,16,42,7.30
2008,10,09,16,43,7.30
2008,10,09,16,44,7.30
2008,10,09,16,45,7.30
2008,10,09,16,46,7.30
2008,10,09,16,47,7.30
2008,10,09,16,48,7.30
2008,10,09,16,49,7.30
2008,10,09,16,50,7.30
2008,10,09,16,51,7.30
2008,10,09,16,52,7.30
2008,10,09,16,53,7.30
2008,10,09,16,54,7.30
2008,10,09,16,55,7.30
2008,10,09,16,56,7.30
2008,10,09,16,57,7.30
2008,10,09,16,58,7.30
2008,10,09,16,59,7.30
2008,10,09,17,00,7.30
2008,10,09,17,01,7.30
2008,10,09,17,02,7.30
2008,10,09,17,03,7.30
2008,10,09,17,04,7.30
2008,10,09,17,05,7.30
2008,10,09,17,06,7.30
2008,10,09,17,07,7.30
2008,10,09,17,08,7.30
2008,10,09,17,09,7.30
2008,10,09,17,10,7.30
2008,10,09,17,11,7.30
2008,10,09,17,12,7.40
2008,10,09,17,13,7.40
2008,10,09,17,14,7.40
2008,10,09,17,15,7.40
2008,10,09,17,16,7.40
2008,10,09,17,17,7.50
2008,10,09,17,18,7.50
2008,10,09,17,19,7.50
2008,10,09,17,20,7.50
2008,10,09,17,21,7.50
2008,10,09,17,22,7.50
2008,10,09,17,23,7.50
2008,10,09,17,24,7.50
2008,10,09,17,25,7.50
2008,10,09,17,26,7.50
2008,10,09,17,27,7.50
2008,10,09,17,28,7.50
2008,10,09,17,29,7.50
2008,10,09,17,30,7.50
2008,10,09,17,31,7.50
2008,10,09,17,32,7.50
2008,10,09,17,33,7.60
2008,10,09,17,34,7.60
2008,10,09,17,35,7.60
2008,10,09,17,36,7.60
2008,10,09,17,37,7.60
2008,10,09,17,38,7.60
2008,10,09,17,39,7.60
2008,10,09,17,40,7.60
2008,10,09,17,41,7.60
2008,10,09,17,42,7.60
2008,10,09,17,43,7.60
2008,10,09,17,44,7.60
2008,10,09,17,45,7.60
2008,10,09,17,46,7.70
2008,10,09,17,47,7.70
2008,10,09,17,48,7.70
2008,10,09,17,49,7.70
2008,10,09,17,50,7.70
2008,10,09,17,51,7.70
2008,10,09,17,52,7.70
2008,10,09,17,53,7.70
2008,10,09,17,54,7.70
2008,10,09,17,55,7.70
2008,10,09,17,56,7.70
2008,10,09,17,57,7.70
2008,10,09,17,58,7.70
2008,10,09,17,59,7.70
2008,10,09,18,00,7.70
2008,10,09,18,01,7.70
2008,10,09,18,02,7.70
2008,10,09,18,03,7.70
2008,10,09,18,04,7.60
2008,10,09,18,05,7.70
2008,10,09,18,06,7.70
2008,10,09,18,07,7.70
2008,10,09,18,08,7.70
2008,10,09,18,09,7.70
2008,10,09,18,10,7.70
2008,10,09,18,11,7.70
2008,10,09,18,12,7.70
2008,10,09,18,13,7.70
2008,10,09,18,14,7.70
2008,10,09,18,15,7.70
2008,10,09,18,16,7.70
2008,10,09,18,17,7.70